Flag for Brazil Weather past 2 weeks in Tabatinga, Amazonas, Brazil

Now
73 °F

Rain. Partly sunny.


Feels Like: 68 °F
Forecast: 72 / 83 °F
Wind: 2 mph from North

Location: Leticia / Vasquez Cobo

Current Time: Jan 31, 2015 at 8:10:41 AM

Latest Report: Jan 31, 2015 at 7:00 AM


Visibility: 1 mi

Pressure: 29.95 "Hg

Humidity: 100%

Dew point: 73 °F

Location of TabatingaLocation

Historic Weather in Tabatinga — Graph

°F

Tabatinga temperature yesterday

Maximum temperature yesterday: 81 °F (at 5:00 PM)
Minimum temperature yesterday: 73 °F (at 5:00 AM)
Average temperature yesterday: 76 °F

Past Weeks' High & Low Weather Summary

 TemperatureHumidityPressure
High91 °F (Jan 20, 2:00 PM)100% (Jan 16, 8:00 PM)29.98 "Hg (Jan 16, 8:00 PM)
Low72 °F (Jan 23, 11:00 PM)59% (Jan 20, 2:00 PM)29.69 "Hg (Jan 29, 3:00 PM)
Average79 °F90%29.86 "Hg
* Reported Jan 16 7:00 AM — Jan 31 7:00 AM, Tabatinga, Weather by CustomWeather, © 2014

Note: Actual official high and low records may vary slightly from our data, if they occured in-between our weather recording intervals... More about our weather records

Advertising

Tabatinga weather history for previous 24 hours

 ConditionsComfort  
Time TempWeatherWind HumidityBarometerVisibility
7:00 AM
Jan 31
73 °FRain. Partly sunny.2 mph100%29.95 "Hg1 mi
6:00 AM73 °FRain. Partly sunny.2 mph100%29.90 "Hg2 mi
5:00 AM75 °FScattered showers. Partly cloudy.No wind94%29.87 "Hg4 mi
3:00 AM75 °FPartly cloudy.No wind100%29.85 "Hg3 mi
2:00 AM75 °FPartly cloudy.2 mph100%29.86 "Hg3 mi
1:00 AM75 °FPassing clouds.No wind94%29.86 "HgN/A
12:00 AM75 °FPartly cloudy.No wind94%29.88 "HgN/A
11:00 PM
Jan 30
75 °FPartly cloudy.No wind94%29.89 "HgN/A
10:00 PM75 °FPassing clouds.No wind94%29.88 "HgN/A
9:00 PM75 °FPassing clouds.3 mph94%29.86 "HgN/A
8:00 PM77 °FPassing clouds.No wind94%29.84 "HgN/A
7:00 PM77 °FPassing clouds.No wind94%29.82 "HgN/A
6:00 PM79 °FScattered clouds.No wind89%29.79 "HgN/A
5:00 PM81 °FScattered clouds.3 mph84%29.79 "HgN/A
4:00 PM79 °FScattered clouds.No wind89%29.79 "HgN/A
3:00 PM79 °FPartly sunny.5 mph89%29.79 "HgN/A
2:00 PM77 °FWarm.No wind94%29.85 "HgN/A
1:00 PM77 °FDrizzle. Partly sunny.2 mph94%29.87 "Hg5 mi
12:00 PM77 °FDrizzle. Partly sunny.2 mph94%29.90 "Hg5 mi
11:00 AM75 °FDrizzle. Partly sunny.No wind94%29.92 "Hg5 mi
10:00 AM75 °FLight rain. Partly sunny.No wind100%29.93 "Hg3 mi
9:00 AM75 °FRain. Low clouds.No wind100%29.92 "Hg3 mi
8:00 AM75 °FDrizzle. Partly sunny.No wind100%29.91 "Hg4 mi
Weather by CustomWeather, © 2014

See weather overviewHow to use our weather pages